User: anonymous   Login
Location: Unspecified
(0.0000°N, 0.0000°E)
Time: 12:54:04
(UTC+00:00)
Language:

Landsat 7 - Orbit

View from above orbital plane
View from above orbital plane
View from above satellite
View from above satellite

Ground track
Ground track

The orbit data is extracted from the following two-line orbital elements,

1 25682U 99020A   17145.19012800 -.00000562 +00000-0 -11469-3 0  9991
2 25682 098.2125 216.6696 0001328 085.4359 274.6948 14.57106799963249
Epoch (UTC): 25 May 2017 04:33:47
Eccentricity: 0.0001328
inclination: 98.2125°
perigee height: 701 km
apogee height: 703 km
right ascension of ascending node: 216.6696°
argument of perigee: 85.4359°
revolutions per day: 14.57106799
mean anomaly at epoch: 274.6948°
orbit number at epoch: 96324

The dashed part of the orbit path shows where the satellite is in the earth's shadow,  

DLR